Location: Kielce
(50.8833°N, 20.6167°E)
Time: 22:13:40
(UTC+02:00)

SR - Pass Details

Date: 26 April 2021
Orbit: 573 x 882 km, 66.7° (Epoch: 09 May)

Event Time Altitude Azimuth Distance (km) Brightness Sun altitude
Rises 13:54:23 0° 322° (NW) 3,488 ? 49.5°
Reaches altitude 10° 13:57:02 10° 328° (NNW) 2,534 ? 49.3°
Maximum altitude 14:02:44 48° 42° (NE) 1,098 ? 48.8°
Drops below altitude 10° 14:08:07 10° 117° (ESE) 2,390 ? 48.3°
Sets 14:10:33 0° 123° (ESE) 3,273 ? 48.1°
